Wind_Speed
76 76 76 76 75 74 73 73 73 74 71 70 68 67 66 65 65 63 60 53 53 51 50 52 53 57 54 53 48 43 45 37 29 31 29 30 30 41 40 38 31 19 17 15 13
74 75 75 75 75 74 74 73 73 75 75 73 71 70 69 69 68 68 62 58 54 50 50 49 52 55 57 54 53 50 45 39 39 29 31 30 30 33 37 33 26 22 17 16 16
73 73 73 74 75 75 74 74 74 75 76 76 74 72 70 70 71 68 65 61 54 52 51 49 47 51 57 53 55 52 47 40 42 36 32 32 31 30 33 33 29 24 18 18 19
73 72 71 72 73 74 74 75 76 75 76 75 75 75 73 72 72 70 67 60 58 53 51 51 50 48 50 55 53 54 49 46 43 43 37 35 34 33 33 32 33 27 23 21 21
73 72 72 71 71 72 72 73 75 77 78 78 77 76 77 77 75 72 67 61 57 50 50 49 49 46 48 51 56 56 50 49 49 45 43 35 34 34 35 37 34 29 26 26 24
67 67 61 63 65 66 68 71 71 75 78 80 80 80 78 78 74 71 69 64 58 52 47 47 47 48 50 54 56 57 55 53 55 51 45 42 33 36 34 40 35 31 29 30 29
65 65 64 63 61 62 64 66 68 71 74 77 79 79 82 77 74 68 69 67 65 58 49 48 44 36 42 49 52 52 51 53 55 54 50 46 39 34 34 39 41 35 34 32 33
65 65 65 63 62 61 61 62 64 67 70 72 75 76 82 82 78 70 69 63 65 63 55 59 56 53 48 43 41 47 46 49 50 51 55 51 40 33 35 37 36 37 37 35 35
71 68 65 66 63 62 59 59 60 64 64 66 70 75 78 78 80 76 70 67 53 61 56 60 63 57 60 51 46 42 49 46 48 48 51 53 48 35 36 36 34 40 39 38 38
78 74 69 67 66 63 60 59 58 60 62 64 66 71 75 70 73 75 74 71 59 62 55 61 63 59 63 68 50 34 42 44 39 44 50 53 53 36 40 36 33 40 42 43 41
84 81 76 69 66 65 65 64 61 57 59 63 63 65 67 68 70 71 70 66 69 59 62 59 64 67 64 65 62 46 42 33 35 44 46 48 51 37 42 37 36 34 36 36 37
86 88 82 73 66 62 74 71 59 53 57 59 58 59 64 66 65 67 70 64 64 60 55 65 67 63 56 56 49 46 44 42 45 38 49 52 52 42 41 44 36 36 33 33 35
77 83 88 80 72 72 66 68 61 54 54 55 56 57 59 61 62 62 64 63 65 64 63 57 64 67 64 52 54 58 56 47 49 47 47 48 51 41 40 44 43 38 32 33 31
56 78 88 83 77 75 72 62 60 55 56 57 55 53 55 56 57 59 59 57 61 62 61 63 62 62 60 52 49 46 63 63 54 49 50 53 55 45 44 45 41 36 31 30 31
61 62 88 89 74 69 53 54 61 57 59 59 57 54 52 53 53 54 53 57 55 58 58 64 62 61 61 55 57 47 45 52 49 47 51 57 59 47 46 48 38 34 32 30 30
63 70 81 87 81 60 72 73 66 64 64 63 59 56 52 52 53 51 52 52 50 52 53 57 60 61 61 64 58 45 46 35 44 42 48 48 55 60 45 48 36 36 38 33 32
63 78 80 83 86 80 59 73 69 66 58 60 58 53 50 50 50 50 51 52 52 53 54 53 56 58 62 63 65 41 61 54 38 54 48 43 53 62 46 46 39 37 37 39 35
63 77 81 87 78 65 57 68 69 64 58 50 50 50 50 49 49 49 51 51 50 46 47 50 59 59 64 76 70 66 64 65 61 53 62 61 51 52 42 42 41 42 37 41 39
60 79 81 86 61 82 70 80 75 56 49 47 48 48 52 50 50 46 48 49 50 47 47 49 52 56 63 70 77 78 74 64 63 69 71 69 66 60 49 38 41 38 38 41 41
62 74 84 82 77 63 72 70 58 57 54 48 50 45 43 49 50 49 47 45 47 47 46 48 49 53 61 68 74 73 72 71 64 65 70 72 65 67 50 44 39 38 43 39 39
61 77 92 71 58 73 70 68 67 54 49 49 48 46 41 41 43 42 41 44 43 45 49 50 50 53 59 65 64 67 72 78 78 68 65 70 75 62 62 53 46 46 45 46 46
62 91 76 60 79 56 78 72 63 52 45 39 43 43 41 39 39 37 39 35 40 45 47 48 53 55 55 55 60 61 60 63 70 61 64 55 58 63 65 61 51 47 45 47 47
69 88 86 76 72 67 73 67 56 54 54 49 44 42 40 38 39 38 35 36 41 42 45 48 50 50 56 52 44 54 59 58 51 58 70 67 60 47 54 50 45 45 45 46 49
81 89 96 57 67 71 75 55 52 51 48 47 43 40 37 37 38 36 34 34 37 42 42 45 45 50 49 53 54 54 54 71 61 59 58 61 55 47 48 49 44 42 41 39 43
69 81 74 71 78 72 67 51 49 48 43 42 42 37 32 36 35 33 32 35 34 35 38 33 36 46 51 49 41 40 56 51 60 69 65 52 53 45 48 50 47 44 44 46 47
68 65 55 54 53 72 66 62 50 42 38 38 37 33 33 34 32 28 32 34 37 39 35 36 43 47 49 54 55 46 45 53 52 58 70 65 63 46 42 53 52 48 45 43 45
68 52 54 47 49 52 52 45 35 30 30 29 29 30 32 35 35 35 36 35 35 37 39 45 42 47 51 50 55 66 51 44 46 52 49 50 42 39 48 51 54 56 53 47 48
Wind_Direction
246 244 243 242 242 240 239 237 236 235 234 233 234 235 237 236 239 241 245 244 243 243 243 241 238 243 246 251 252 255 249 245 248 246 251 252 253 236 240 245 242 238 242 246 251
246 245 243 241 241 240 239 238 236 235 234 232 232 235 235 235 235 237 239 239 242 243 244 243 241 240 244 246 251 254 255 255 251 245 244 242 244 246 244 238 232 234 237 238 245
249 245 243 242 239 238 237 237 235 235 234 233 232 233 233 235 236 235 236 238 238 242 243 244 244 242 242 244 248 252 256 260 257 246 249 239 238 244 229 229 230 233 233 233 238
248 247 245 241 240 238 236 235 234 232 233 232 232 233 233 234 235 233 236 235 236 239 242 245 247 246 248 246 245 247 251 258 261 252 248 243 235 230 229 230 231 234 233 231 233
243 243 244 242 240 238 237 235 234 233 231 230 230 232 233 233 232 233 235 237 239 238 239 243 244 239 246 248 244 243 243 248 255 258 254 246 242 237 232 234 235 232 236 232 227
239 238 236 238 237 236 236 235 232 232 232 230 229 231 232 233 232 231 232 234 236 238 238 243 244 245 242 243 244 241 240 241 249 255 258 253 242 236 230 236 233 234 236 236 229
237 235 235 233 234 233 233 232 232 230 230 230 230 231 232 230 229 230 231 232 235 235 229 226 224 232 249 247 243 244 241 240 244 250 254 257 240 240 244 237 232 237 237 238 236
235 234 232 232 232 231 231 231 230 229 228 228 229 229 231 230 227 227 229 231 232 233 229 223 227 234 226 233 240 247 241 238 240 246 251 254 248 251 247 241 237 233 230 231 237
233 232 230 230 230 229 227 227 227 227 227 227 228 229 229 228 227 226 228 229 225 228 224 225 232 230 231 233 241 231 240 236 236 240 245 249 249 244 245 233 230 227 227 225 230
232 229 228 227 228 227 227 225 224 225 224 224 226 227 228 228 229 231 229 229 228 231 226 225 227 224 232 240 232 221 231 231 239 241 239 241 246 240 246 236 223 226 226 227 231
229 226 225 223 225 227 226 226 222 219 222 227 229 230 228 228 226 228 229 229 228 226 225 225 225 226 234 237 240 240 232 235 242 241 235 236 238 233 248 243 230 224 234 234 235
229 223 219 217 218 226 223 227 228 232 228 225 223 225 227 225 226 226 226 225 227 226 225 226 225 229 232 233 234 236 247 240 248 254 247 235 237 227 235 246 245 231 237 237 236
225 219 215 211 213 218 222 225 223 222 224 228 226 222 222 222 225 225 227 229 230 227 225 227 230 228 232 234 241 251 251 245 255 258 250 237 238 226 227 240 245 236 233 238 235
213 212 209 207 209 216 220 218 219 217 221 221 221 223 225 227 224 224 225 226 228 230 229 229 228 228 229 230 222 233 248 253 255 246 241 244 244 232 228 236 241 237 237 242 237
201 201 200 204 205 212 206 212 214 219 221 221 220 223 224 225 226 229 228 225 226 229 228 231 229 228 229 225 229 229 239 245 239 244 238 237 244 231 232 239 239 239 243 247 240
201 188 193 198 199 208 217 218 216 215 217 222 222 221 223 225 225 224 227 228 226 228 229 229 229 226 225 227 230 224 223 217 232 237 237 232 243 244 232 240 235 238 241 249 243
202 192 183 189 195 205 204 203 203 211 216 221 222 223 227 230 228 225 228 229 228 229 231 233 235 226 219 217 220 214 225 231 241 240 241 237 237 250 237 236 234 235 238 244 239
199 190 180 188 195 204 207 211 214 222 214 218 221 224 227 227 229 229 228 229 229 229 229 232 229 227 220 219 225 233 239 247 247 246 248 250 246 257 250 235 235 232 238 237 244
199 189 182 185 187 199 212 207 208 211 219 220 226 223 227 228 232 235 234 231 232 237 240 235 231 229 227 225 233 239 240 244 246 245 248 247 251 250 250 241 233 226 232 237 241
195 191 181 177 191 202 196 199 216 221 216 222 225 226 229 229 231 233 235 235 234 235 233 234 232 229 226 227 230 234 235 235 240 245 249 249 245 248 250 248 243 235 230 234 238
191 186 172 178 196 196 203 210 218 213 210 218 225 230 233 234 233 239 240 237 234 231 231 230 229 227 228 230 230 233 233 237 244 251 255 256 246 244 241 257 250 244 234 230 233
185 181 180 172 179 197 206 209 201 203 207 219 224 228 234 235 237 239 237 236 235 233 233 231 230 226 229 231 232 230 234 236 236 235 246 243 246 247 252 250 253 252 241 232 233
185 176 178 182 194 196 196 196 205 215 223 228 231 233 233 229 232 232 232 233 234 233 231 231 229 228 228 229 224 238 226 224 233 235 234 239 247 240 245 243 241 239 236 233 229
177 182 179 191 194 194 196 202 208 214 219 223 227 231 230 229 230 229 230 235 234 234 232 230 233 233 233 234 234 230 233 225 225 235 242 244 241 223 230 235 238 236 236 232 228
183 181 185 184 187 191 195 203 205 211 212 216 221 225 229 229 231 232 233 236 238 235 232 225 242 238 234 232 222 225 229 231 244 241 236 237 237 223 221 233 235 233 234 234 233
189 167 167 181 182 192 199 200 205 208 215 217 219 224 226 229 232 244 243 241 240 237 232 228 232 233 235 236 231 224 229 226 219 233 236 236 238 229 219 231 237 235 231 235 236
166 162 173 172 180 188 191 193 204 212 215 215 221 227 229 230 233 235 237 239 241 243 241 239 241 237 239 238 240 234 223 227 232 231 240 238 235 219 227 232 235 237 238 241 229
Height
5687 5694 5701 5708 5715 5722 5728 5736 5743 5751 5758 5766 5771 5776 5781 5786 5792 5794 5801 5807 5810 5815 5818 5823 5827 5832 5837 5842 5845 5847 5848 5854 5858 5858 5860 5863 5866 5869 5872 5875 5877 5877 5878 5878 5879
5671 5676 5683 5691 5699 5706 5714 5721 5729 5736 5744 5751 5759 5762 5767 5774 5778 5787 5795 5795 5801 5806 5811 5815 5819 5824 5828 5833 5838 5841 5843 5851 5849 5853 5854 5856 5861 5864 5868 5871 5872 5873 5874 5875 5876
5651 5659 5667 5674 5682 5690 5699 5707 5714 5722 5729 5737 5745 5749 5756 5761 5764 5780 5784 5787 5792 5798 5803 5807 5811 5816 5820 5825 5829 5835 5841 5843 5844 5847 5849 5851 5853 5856 5861 5866 5866 5867 5870 5871 5872
5633 5641 5649 5658 5665 5674 5682 5691 5700 5707 5715 5723 5731 5736 5742 5745 5753 5768 5772 5779 5784 5789 5794 5798 5803 5808 5814 5817 5822 5825 5832 5836 5839 5841 5844 5846 5848 5851 5855 5859 5860 5862 5865 5866 5867
5615 5623 5631 5640 5648 5656 5666 5674 5685 5692 5700 5708 5714 5721 5724 5730 5744 5757 5763 5770 5776 5781 5785 5790 5795 5800 5804 5808 5812 5816 5822 5826 5830 5834 5837 5841 5842 5844 5849 5851 5856 5857 5860 5862 5863
5597 5606 5616 5624 5632 5641 5650 5659 5668 5677 5685 5692 5697 5704 5708 5718 5734 5742 5752 5759 5765 5771 5777 5783 5785 5789 5793 5797 5801 5806 5811 5816 5821 5828 5831 5834 5835 5836 5842 5844 5850 5852 5854 5857 5858
5582 5590 5600 5610 5617 5626 5636 5644 5653 5660 5668 5676 5680 5687 5693 5713 5721 5730 5742 5746 5754 5761 5769 5775 5777 5780 5783 5787 5792 5795 5801 5805 5812 5818 5823 5826 5828 5834 5833 5836 5840 5844 5848 5852 5854
5566 5577 5587 5596 5605 5614 5623 5631 5639 5646 5653 5659 5664 5672 5678 5690 5708 5721 5729 5733 5743 5750 5758 5764 5767 5773 5776 5778 5783 5786 5789 5796 5804 5807 5814 5817 5825 5826 5823 5826 5832 5836 5840 5845 5848
5550 5561 5573 5584 5594 5603 5611 5619 5626 5632 5638 5643 5650 5656 5664 5683 5698 5710 5720 5725 5731 5736 5744 5750 5756 5763 5766 5770 5774 5776 5783 5787 5791 5797 5801 5807 5813 5819 5816 5819 5823 5828 5833 5836 5839
5531 5545 5558 5570 5581 5592 5601 5607 5611 5616 5623 5629 5636 5643 5658 5681 5687 5695 5705 5712 5718 5724 5730 5737 5743 5750 5755 5758 5766 5772 5774 5778 5784 5789 5790 5796 5802 5810 5811 5814 5818 5820 5823 5827 5831
5510 5526 5543 5557 5571 5580 5586 5589 5595 5601 5611 5621 5636 5645 5654 5666 5671 5682 5692 5697 5702 5709 5718 5726 5729 5739 5751 5754 5760 5762 5765 5769 5775 5779 5781 5786 5789 5801 5803 5806 5811 5816 5820 5824 5827
5486 5505 5526 5545 5561 5561 5567 5577 5600 5612 5607 5612 5623 5629 5640 5651 5660 5671 5677 5682 5690 5705 5709 5710 5718 5742 5738 5742 5748 5751 5754 5761 5767 5770 5772 5775 5778 5791 5795 5798 5805 5809 5813 5817 5820
5461 5483 5506 5530 5547 5553 5559 5576 5583 5595 5598 5606 5615 5620 5629 5640 5648 5658 5665 5675 5680 5689 5696 5702 5726 5720 5726 5734 5740 5742 5748 5754 5759 5760 5763 5765 5767 5782 5789 5789 5797 5804 5808 5810 5814
5443 5462 5487 5514 5527 5539 5549 5563 5575 5586 5588 5592 5601 5610 5622 5631 5638 5645 5654 5663 5667 5679 5689 5692 5704 5709 5718 5726 5734 5735 5742 5746 5747 5749 5754 5756 5755 5772 5781 5783 5789 5797 5800 5806 5807
5430 5446 5470 5494 5519 5524 5543 5555 5566 5573 5573 5583 5592 5603 5612 5620 5632 5639 5645 5649 5660 5669 5673 5687 5691 5701 5708 5722 5724 5728 5732 5735 5738 5736 5739 5745 5744 5765 5771 5778 5786 5792 5795 5798 5799
5421 5435 5456 5482 5506 5519 5534 5547 5554 5557 5557 5572 5586 5594 5604 5613 5620 5629 5634 5641 5651 5655 5663 5671 5678 5686 5703 5711 5716 5718 5723 5724 5721 5725 5722 5742 5739 5745 5767 5774 5779 5783 5787 5792 5792
5413 5426 5446 5472 5498 5509 5521 5527 5537 5541 5552 5568 5581 5590 5599 5605 5611 5620 5627 5631 5641 5647 5654 5668 5671 5683 5688 5695 5704 5701 5707 5713 5712 5712 5722 5728 5725 5738 5759 5764 5772 5776 5778 5784 5785
5404 5420 5441 5465 5486 5501 5504 5523 5524 5537 5550 5564 5576 5584 5591 5595 5601 5610 5617 5623 5631 5642 5648 5652 5657 5667 5683 5685 5695 5698 5702 5702 5704 5705 5723 5711 5721 5732 5747 5755 5762 5769 5770 5774 5778
5399 5415 5434 5456 5478 5493 5502 5507 5515 5535 5549 5560 5567 5574 5582 5589 5596 5601 5610 5617 5625 5633 5639 5644 5648 5661 5667 5680 5678 5684 5680 5704 5691 5692 5698 5698 5722 5726 5733 5746 5752 5759 5761 5764 5766
5394 5410 5429 5454 5473 5482 5494 5503 5517 5529 5544 5553 5560 5568 5576 5583 5588 5593 5600 5612 5617 5623 5626 5634 5640 5648 5656 5660 5663 5670 5682 5679 5677 5680 5685 5693 5710 5713 5729 5737 5742 5749 5754 5755 5755
5390 5405 5425 5448 5464 5471 5483 5497 5509 5526 5539 5547 5555 5563 5571 5578 5584 5590 5596 5603 5608 5613 5617 5624 5629 5636 5637 5640 5657 5663 5664 5670 5672 5673 5678 5685 5693 5716 5716 5723 5731 5736 5741 5742 5745
5383 5401 5423 5437 5450 5467 5482 5496 5510 5522 5533 5542 5549 5558 5567 5574 5579 5584 5590 5597 5600 5603 5609 5618 5616 5621 5628 5637 5640 5645 5652 5658 5660 5665 5668 5673 5681 5703 5706 5713 5720 5725 5730 5732 5734
5384 5406 5423 5442 5450 5461 5472 5490 5507 5518 5529 5538 5545 5553 5560 5566 5571 5577 5581 5587 5590 5595 5600 5605 5607 5612 5617 5623 5629 5630 5642 5649 5656 5654 5657 5663 5672 5692 5697 5699 5706 5712 5716 5718 5720
5387 5400 5418 5433 5448 5461 5476 5493 5504 5516 5526 5535 5542 5548 5555 5558 5563 5569 5575 5578 5582 5586 5591 5595 5597 5603 5610 5619 5621 5624 5631 5636 5639 5638 5649 5649 5668 5680 5684 5688 5693 5699 5704 5705 5706
5389 5403 5418 5425 5444 5464 5482 5492 5504 5514 5522 5529 5536 5542 5548 5553 5556 5562 5567 5571 5576 5579 5584 5589 5591 5595 5600 5603 5607 5613 5618 5623 5625 5633 5632 5650 5653 5670 5675 5675 5681 5685 5688 5693 5696
5394 5407 5425 5441 5454 5468 5480 5492 5504 5512 5520 5525 5531 5537 5542 5546 5552 5557 5561 5565 5569 5573 5576 5580 5584 5585 5589 5594 5599 5603 5607 5611 5615 5622 5624 5637 5639 5660 5670 5661 5668 5672 5676 5681 5684
5405 5420 5437 5447 5458 5472 5484 5495 5503 5510 5517 5524 5529 5534 5538 5541 5545 5549 5554 5558 5563 5568 5571 5573 5576 5580 5584 5584 5583 5585 5604 5606 5611 5612 5620 5622 5643 5654 5649 5652 5656 5657 5661 5666 5669